Theta_e
320 325 329 333 335 342 344 345 350 358 354 356 357 358 358 348 348 350 349 349 347 348 344 345 346 343 345 348 347 345 346 347 345 347 345 345 342 345 343 350 350 348 345 351
322 323 327 331 333 339 342 342 345 351 350 351 353 357 358 353 349 346 348 348 350 346 344 346 347 344 346 349 348 350 349 348 346 347 345 344 343 344 344 350 348 346 349 351
322 324 325 329 332 340 340 340 346 348 344 346 347 356 361 355 351 347 344 345 346 349 350 350 347 347 348 350 351 351 350 348 347 348 345 345 346 345 348 347 347 347 349 351
322 324 325 327 329 335 334 339 342 346 342 343 349 359 364 360 357 351 349 344 346 347 348 344 346 347 349 351 350 353 350 348 348 348 346 344 347 347 346 348 348 348 349 349
323 323 327 330 332 331 332 336 337 340 344 340 343 350 359 359 361 358 353 345 344 344 349 347 346 347 347 351 352 353 351 348 350 349 347 348 348 348 347 347 349 349 349 349
326 327 326 327 329 330 331 338 339 342 343 341 339 344 366 367 360 357 355 351 345 344 346 349 346 346 346 346 351 354 351 349 351 349 350 347 349 350 348 349 349 348 350 349
324 325 325 326 328 329 330 331 335 338 338 343 349 350 363 353 354 353 356 353 347 346 346 345 348 346 347 346 346 354 353 351 350 349 351 350 349 348 349 349 347 344 350 348
327 326 324 325 327 329 330 330 332 345 350 355 345 360 356 351 350 351 351 348 346 346 346 347 347 349 349 347 347 350 355 352 350 353 352 352 350 351 346 350 347 347 346 348
331 327 325 325 324 325 328 331 329 331 336 342 349 352 347 346 346 346 352 349 348 347 347 349 348 350 349 347 349 351 355 355 353 351 351 350 352 352 350 350 348 349 351 351
330 333 332 325 327 325 326 329 335 331 339 346 356 352 354 348 349 348 354 351 352 352 349 348 347 348 348 348 347 353 353 354 353 352 350 350 351 351 352 349 350 350 352 351
328 329 332 331 333 331 332 329 342 340 344 348 360 351 342 343 344 351 349 352 352 349 350 351 346 345 348 349 349 353 354 353 353 351 353 352 353 352 349 350 352 340 352 353
330 331 335 337 333 334 333 333 339 341 354 353 349 355 345 342 344 348 349 351 351 349 351 352 348 346 347 352 351 350 353 354 352 351 352 352 353 353 353 351 352 352 353 351
331 331 331 338 339 337 334 334 337 336 338 347 351 351 340 342 344 356 350 350 353 352 352 351 352 350 350 353 352 353 351 353 352 351 351 351 350 353 353 353 351 352 351 351
327 329 329 331 338 339 335 338 336 337 339 336 337 347 337 342 342 351 355 355 353 352 351 351 350 348 346 342 343 355 354 354 352 351 352 350 352 350 351 351 352 353 353 350
327 328 329 330 334 336 333 333 337 339 339 342 344 345 337 336 338 350 351 355 353 354 351 350 347 345 344 342 339 348 349 352 352 350 351 352 351 351 352 352 353 353 354 352
328 330 330 329 331 333 335 334 334 333 336 341 340 344 346 340 347 349 348 349 354 352 352 348 348 346 345 343 344 344 348 339 354 356 351 350 352 352 352 354 353 352 352 353
329 331 332 334 334 335 336 338 339 338 338 340 343 343 345 342 349 348 349 346 347 345 349 348 350 348 346 343 343 345 349 350 350 354 352 355 353 354 353 353 352 352 351 352
328 329 330 331 331 335 335 333 335 338 336 338 344 340 343 346 347 345 344 346 346 344 343 341 341 344 344 345 344 345 347 348 348 351 353 354 356 355 355 354 352 352 351 354
325 326 327 331 329 331 335 333 332 336 335 337 347 340 341 347 345 345 340 340 342 342 342 340 338 338 340 341 344 344 342 342 342 345 347 350 354 353 353 353 353 353 353 355
326 326 326 329 333 334 338 335 332 330 331 336 337 340 341 344 350 349 340 339 339 339 339 340 339 339 339 341 341 342 343 343 343 343 343 346 347 349 350 350 348 348 349 351
330 328 327 328 328 330 335 333 332 330 341 338 337 337 343 347 346 341 340 339 338 338 338 338 338 337 335 335 337 339 342 347 346 343 343 342 343 346 343 342 343 345 345 346
329 329 325 326 330 336 334 333 338 339 336 336 338 337 339 339 340 339 338 338 337 336 335 335 336 334 332 330 334 339 340 343 346 343 339 338 341 341 341 340 339 341 340 339
330 328 328 329 333 335 333 335 333 332 334 336 337 334 334 334 336 336 335 334 337 335 334 334 334 333 327 327 331 333 336 339 342 342 339 339 338 339 339 338 334 335 333 331
329 332 329 330 334 332 332 330 329 329 332 332 331 329 328 330 332 332 333 334 336 334 334 332 333 330 326 325 327 330 334 336 337 336 337 336 334 332 331 330 329 329 328 327
331 331 331 330 330 329 328 327 328 328 329 329 328 327 326 326 328 330 332 333 335 333 332 332 331 330 327 325 326 329 332 334 333 333 332 331 329 327 326 326 324 324 325 325
329 333 330 329 331 337 334 329 327 328 328 328 328 328 326 325 328 327 331 333 333 333 332 333 331 330 329 328 326 327 329 330 329 327 327 325 325 322 320 320 319 320 320 320
Wind_Speed
13 11 14 19 16 4 14 9 10 10 7 10 9 7 13 20 13 13 10 6 7 11 15 17 17 21 23 22 20 13 11 18 18 14 13 12 12 8 9 14 12 6 6 6
9 15 17 16 17 12 8 6 4 11 10 7 8 10 18 22 21 19 13 6 2 6 2 17 20 21 24 27 25 19 17 16 17 15 15 16 15 13 12 13 9 6 6 8
15 14 16 16 13 8 9 9 6 4 5 10 6 9 17 19 18 19 13 11 12 10 8 1 13 25 29 25 25 21 17 19 16 16 16 14 12 15 9 7 13 11 12 8
11 15 14 13 11 8 14 9 5 7 4 9 12 2 18 19 17 18 18 18 18 14 3 7 19 17 30 29 30 25 22 21 18 19 18 15 12 13 14 16 15 15 12 10
9 11 6 7 10 13 7 3 8 9 17 14 16 9 11 19 18 17 19 20 21 18 24 19 19 22 22 35 31 28 26 23 17 16 14 14 12 16 17 16 15 14 12 8
10 4 4 12 16 16 7 9 11 9 15 11 15 10 9 11 13 19 22 23 22 21 16 22 14 27 20 25 32 29 29 24 17 18 14 18 17 8 4 13 12 11 13 11
12 11 10 12 13 11 8 12 9 11 12 4 16 5 6 8 19 19 22 21 23 23 19 22 23 29 26 27 25 31 29 25 21 20 18 18 13 7 5 17 14 14 20 20
8 12 15 10 13 9 14 13 13 1 4 5 21 6 7 11 15 19 21 23 23 22 11 9 21 20 16 30 28 31 30 25 23 22 20 16 15 13 11 8 7 10 10 9
9 6 12 11 10 14 14 11 18 9 14 5 4 4 6 12 7 12 22 21 21 20 14 24 24 28 34 25 30 29 31 28 27 24 21 19 16 14 14 10 9 14 10 10
8 2 7 9 7 13 15 10 9 10 15 8 4 4 3 16 20 6 22 20 20 16 12 12 15 14 27 29 24 30 32 29 28 25 26 21 19 18 11 10 13 16 7 6
12 10 4 8 4 4 4 9 7 10 8 9 3 3 7 18 30 14 9 24 19 17 19 17 10 15 10 25 34 29 33 29 26 25 27 26 24 21 19 16 14 21 11 8
7 13 1 5 9 15 4 2 3 6 5 6 5 4 12 23 23 6 10 11 6 6 9 10 12 6 8 17 31 28 30 30 28 27 26 27 24 24 22 22 18 15 16 16
9 7 9 12 11 17 6 3 7 6 6 8 3 4 8 11 25 13 7 5 6 2 9 6 10 11 17 17 28 24 30 30 30 27 26 23 23 20 20 25 22 23 20 17
3 13 14 10 6 13 13 5 9 9 7 7 3 7 9 9 15 15 11 14 8 4 1 5 6 11 12 21 26 7 16 28 31 29 28 27 24 23 21 18 22 17 21 17
6 12 15 13 4 22 13 14 14 6 9 10 10 7 6 9 8 9 10 8 4 5 0 5 4 5 8 11 19 29 15 12 30 31 26 27 26 22 19 17 15 15 14 15
10 11 11 14 8 13 10 20 13 10 8 19 5 11 1 2 5 4 3 6 9 5 2 3 9 10 4 9 14 23 7 17 10 11 24 19 23 19 16 13 12 13 13 15
7 8 8 12 11 9 8 10 12 10 26 19 9 10 13 7 7 2 3 4 4 6 6 3 6 11 10 8 11 17 8 6 15 6 6 7 12 13 15 16 15 17 17 17
11 6 7 11 11 10 3 9 9 13 7 7 19 14 10 14 6 4 2 7 6 2 4 4 6 10 10 6 11 13 6 2 3 3 1 3 5 10 12 13 15 15 19 16
9 6 8 10 11 3 8 2 3 8 7 14 18 19 8 11 9 8 5 6 7 5 4 3 3 1 2 3 1 4 8 7 10 14 4 3 5 7 8 9 9 9 12 16
5 6 6 11 12 12 8 3 4 5 5 13 13 19 19 20 10 6 7 7 7 8 5 5 3 2 2 3 6 7 8 12 16 15 18 5 2 5 4 2 3 4 6 12
7 7 11 9 8 0 7 6 4 3 5 8 9 4 15 10 7 8 9 8 7 7 7 6 6 7 5 4 5 7 10 14 11 11 10 8 4 6 6 0 4 3 5 6
6 6 9 11 13 5 8 4 6 4 2 6 11 10 12 8 10 7 5 8 6 7 7 5 6 6 8 8 6 4 9 10 4 7 9 3 1 4 8 4 6 4 5 5
8 8 3 1 2 2 2 7 7 9 2 7 6 9 8 6 7 6 5 5 10 9 6 7 6 7 8 9 8 8 10 7 5 11 9 9 8 4 4 5 2 6 4 4
8 10 4 8 9 11 9 5 2 2 3 7 8 6 5 4 7 7 6 6 10 8 8 6 6 8 8 8 7 6 7 9 8 15 17 14 14 15 12 11 11 9 6 5
7 8 1 5 11 5 6 4 4 2 5 8 9 6 6 4 4 4 6 4 13 10 5 7 6 7 6 8 8 6 7 12 16 16 15 15 11 10 12 11 10 8 7 4
6 8 4 3 5 4 5 6 2 4 6 7 7 7 5 4 5 2 6 10 10 7 3 4 7 6 6 7 8 8 7 9 12 12 11 10 11 11 10 10 11 7 6 5
Wind_Direction
202 220 218 233 238 185 183 196 168 172 185 184 213 183 171 190 200 225 234 205 179 263 165 155 157 158 139 140 146 153 141 148 155 170 179 154 183 205 183 126 132 172 215 272
184 231 238 238 249 206 200 267 186 174 142 240 167 188 181 183 198 212 210 203 196 278 211 172 153 166 152 147 150 167 166 165 175 184 188 181 186 191 194 143 145 149 199 260
243 215 230 256 245 281 186 221 154 183 250 245 249 205 180 187 198 206 198 204 220 248 192 253 205 170 153 157 155 159 169 176 187 199 197 193 196 186 140 163 162 191 210 226
239 259 209 241 243 219 268 63 120 167 258 263 190 252 186 183 192 207 204 209 223 187 164 216 241 185 163 161 162 160 168 181 190 197 198 188 195 177 195 196 196 185 202 223
204 248 181 262 237 248 243 354 261 320 306 262 216 240 188 163 183 200 212 207 224 218 176 208 228 205 173 158 163 164 171 180 194 184 184 188 199 201 198 212 187 190 192 216
283 355 246 237 240 241 234 188 201 189 244 260 270 279 137 160 190 202 202 211 221 222 193 176 214 251 151 161 162 164 172 179 193 187 196 193 217 208 241 172 165 182 192 215
207 226 229 235 240 228 247 257 249 227 226 261 344 319 132 194 199 195 199 197 208 220 218 164 184 221 168 162 169 157 161 174 193 195 198 212 212 248 272 164 190 199 197 209
209 185 187 202 249 241 220 240 256 321 25 310 298 4 147 209 222 202 178 186 201 208 194 252 200 173 171 174 167 161 165 172 186 199 198 208 212 207 213 216 193 240 264 332
316 116 157 196 202 253 254 209 259 283 233 208 290 57 313 327 196 179 169 186 205 214 201 191 187 173 184 169 179 165 165 173 180 197 198 206 218 223 196 220 242 257 244 146
308 202 333 171 221 222 256 293 295 238 246 231 207 7 190 332 304 148 166 175 216 191 190 233 147 181 177 171 165 163 166 176 183 195 192 201 209 215 224 225 228 218 289 209
302 294 145 250 296 261 251 241 350 342 10 314 106 6 313 282 275 276 116 176 177 188 189 200 170 141 211 196 182 162 165 175 184 197 191 198 196 203 214 216 238 229 245 245
308 312 69 187 219 276 251 223 260 329 82 285 311 151 215 259 286 355 56 83 174 159 199 170 179 133 256 234 170 172 170 174 184 193 199 201 201 204 203 208 213 222 233 233
349 296 266 132 24 335 294 297 222 236 233 123 265 141 241 12 347 12 80 107 98 41 94 105 114 63 34 315 162 178 182 173 183 188 190 195 203 206 211 205 209 211 223 231
316 277 294 323 137 172 268 136 289 272 271 246 254 105 9 72 310 339 338 32 123 125 127 126 89 82 69 7 358 275 189 184 182 184 186 196 198 201 215 212 213 220 226 219
253 267 280 313 133 192 246 210 185 220 339 318 26 120 143 138 218 305 318 342 115 113 88 95 119 70 2 357 342 317 312 329 182 186 194 192 192 198 212 220 218 215 215 227
232 257 271 278 251 242 340 255 188 135 121 273 164 131 310 245 262 274 351 353 43 92 111 27 81 98 137 267 270 287 320 288 302 152 193 195 190 195 210 219 226 231 232 230
292 317 323 290 1 334 215 10 13 310 176 189 165 142 125 306 216 236 107 88 52 52 40 125 117 116 134 194 260 285 315 98 272 281 173 192 171 192 205 217 224 227 231 231
238 268 284 276 288 272 16 22 28 311 273 148 114 130 146 169 167 149 41 103 104 69 93 38 49 65 117 154 207 248 207 226 253 266 311 166 189 215 223 222 229 227 233 230
266 256 265 279 256 240 117 117 271 322 312 80 134 135 161 175 169 112 101 82 90 96 90 92 66 84 51 81 227 270 291 277 251 252 280 245 226 228 228 237 238 256 255 248
216 271 239 268 288 292 90 54 190 358 322 63 102 130 114 258 188 137 134 114 108 90 74 91 102 156 274 259 290 273 252 246 259 244 226 256 220 216 210 267 295 298 305 283
219 236 264 237 255 190 138 153 246 252 88 158 138 357 95 90 88 106 125 109 84 82 84 71 57 59 31 342 315 296 296 277 247 228 209 200 167 140 132 326 24 345 314 309
229 227 230 241 261 211 7 154 15 79 131 64 88 75 81 95 117 118 127 121 97 88 71 58 63 36 21 8 3 338 28 21 222 166 150 156 162 139 121 307 341 335 326 303
214 256 293 301 5 186 146 164 210 298 150 118 99 94 122 142 128 110 115 87 104 86 68 50 51 50 29 24 45 54 26 44 81 185 168 170 165 146 132 135 237 50 356 23
219 4 344 342 167 186 190 117 343 219 63 82 69 74 36 72 120 134 123 118 91 78 76 78 51 47 30 32 52 63 64 79 116 108 127 137 136 121 118 121 115 111 115 134
150 237 29 294 320 159 162 228 169 186 81 98 88 58 40 12 83 74 112 101 84 81 63 91 86 71 52 55 60 81 100 117 111 107 108 107 102 124 125 120 114 127 133 136
174 135 192 180 256 327 343 232 215 197 155 136 139 115 59 1 69 54 86 85 101 110 138 80 94 84 79 73 73 86 118 136 135 129 128 137 133 125 124 124 115 108 116 124